QPF
0.04 0.03 0.02 0.01 0.01 0.00 0.00 0.01 0.01 0.01 0.00 0.00 0.00 0.00 0.00 0.00 0.00 0.00 0.00 0.00 0.00 0.00 0.00 0.00 0.00 0.00 0.00 0.00 0.00 0.00 0.00 0.00 0.00 0.01 0.01 0.01 0.01 0.01
0.04 0.03 0.02 0.01 0.01 0.01 0.01 0.01 0.01 0.01 0.01 0.00 0.00 0.00 0.00 0.00 0.00 0.00 0.00 0.00 0.00 0.00 0.00 0.00 0.00 0.00 0.00 0.00 0.00 0.00 0.00 0.00 0.00 0.01 0.01 0.01 0.01 0.01
0.04 0.03 0.02 0.02 0.02 0.01 0.01 0.01 0.01 0.01 0.01 0.01 0.00 0.00 0.00 0.00 0.00 0.00 0.00 0.00 0.00 0.00 0.00 0.00 0.00 0.00 0.00 0.00 0.00 0.00 0.00 0.00 0.00 0.01 0.01 0.01 0.01 0.01
0.05 0.04 0.03 0.02 0.02 0.02 0.01 0.01 0.01 0.01 0.01 0.01 0.01 0.01 0.01 0.01 0.01 0.00 0.00 0.00 0.00 0.00 0.00 0.00 0.00 0.00 0.00 0.00 0.00 0.00 0.00 0.00 0.00 0.00 0.01 0.01 0.01 0.01
0.07 0.06 0.05 0.04 0.03 0.03 0.02 0.02 0.02 0.02 0.02 0.02 0.01 0.01 0.01 0.01 0.01 0.01 0.01 0.00 0.00 0.00 0.00 0.00 0.00 0.00 0.00 0.00 0.00 0.00 0.00 0.00 0.00 0.00 0.01 0.01 0.01 0.01
0.07 0.07 0.06 0.06 0.06 0.06 0.06 0.05 0.04 0.04 0.03 0.03 0.02 0.02 0.02 0.02 0.02 0.01 0.01 0.01 0.00 0.00 0.00 0.00 0.00 0.00 0.00 0.00 0.00 0.00 0.00 0.00 0.00 0.00 0.01 0.01 0.01 0.01
0.09 0.08 0.06 0.05 0.04 0.04 0.05 0.05 0.05 0.05 0.05 0.05 0.05 0.04 0.04 0.04 0.04 0.03 0.03 0.03 0.02 0.01 0.01 0.00 0.00 0.00 0.00 0.00 0.00 0.00 0.00 0.00 0.00 0.01 0.01 0.01 0.01 0.01
0.10 0.08 0.07 0.06 0.04 0.03 0.02 0.02 0.03 0.03 0.04 0.04 0.05 0.05 0.04 0.05 0.06 0.06 0.06 0.05 0.04 0.02 0.02 0.01 0.01 0.01 0.00 0.00 0.00 0.00 0.00 0.00 0.00 0.01 0.01 0.01 0.01 0.01
0.08 0.06 0.05 0.05 0.05 0.04 0.03 0.03 0.03 0.03 0.03 0.04 0.05 0.05 0.05 0.06 0.06 0.06 0.05 0.04 0.03 0.02 0.02 0.01 0.01 0.01 0.00 0.00 0.01 0.00 0.00 0.00 0.01 0.01 0.01 0.01 0.01 0.01
0.06 0.05 0.04 0.03 0.03 0.04 0.04 0.04 0.03 0.03 0.03 0.04 0.05 0.05 0.05 0.05 0.06 0.06 0.06 0.05 0.04 0.03 0.02 0.01 0.01 0.01 0.00 0.01 0.01 0.01 0.01 0.01 0.01 0.01 0.01 0.01 0.01 0.01
0.06 0.05 0.03 0.02 0.01 0.02 0.03 0.03 0.04 0.04 0.04 0.04 0.04 0.05 0.06 0.07 0.07 0.08 0.09 0.08 0.06 0.04 0.02 0.02 0.01 0.02 0.02 0.02 0.02 0.02 0.02 0.02 0.01 0.01 0.01 0.01 0.01 0.01
0.06 0.05 0.04 0.02 0.01 0.01 0.02 0.02 0.03 0.03 0.03 0.04 0.04 0.05 0.06 0.07 0.09 0.09 0.09 0.08 0.06 0.04 0.02 0.02 0.03 0.03 0.04 0.03 0.03 0.03 0.03 0.02 0.02 0.02 0.01 0.01 0.01 0.01
0.05 0.05 0.04 0.03 0.02 0.01 0.01 0.01 0.02 0.03 0.04 0.05 0.06 0.06 0.06 0.07 0.08 0.08 0.09 0.09 0.09 0.07 0.04 0.04 0.04 0.05 0.05 0.05 0.04 0.03 0.02 0.02 0.02 0.02 0.02 0.02 0.01 0.01
0.05 0.04 0.03 0.04 0.03 0.03 0.02 0.03 0.04 0.04 0.04 0.04 0.05 0.05 0.05 0.06 0.07 0.07 0.09 0.10 0.10 0.08 0.07 0.06 0.06 0.06 0.06 0.06 0.05 0.04 0.04 0.03 0.02 0.02 0.01 0.01 0.01 0.02
0.05 0.05 0.04 0.04 0.04 0.04 0.05 0.05 0.05 0.04 0.04 0.04 0.04 0.04 0.04 0.04 0.06 0.08 0.10 0.12 0.12 0.11 0.11 0.10 0.08 0.07 0.08 0.07 0.05 0.04 0.03 0.03 0.02 0.02 0.02 0.02 0.02 0.02
0.05 0.05 0.06 0.05 0.06 0.05 0.06 0.06 0.05 0.05 0.05 0.04 0.05 0.06 0.06 0.07 0.08 0.09 0.10 0.11 0.12 0.11 0.10 0.09 0.08 0.08 0.07 0.06 0.05 0.04 0.03 0.03 0.02 0.02 0.02 0.02 0.02 0.02
0.06 0.06 0.06 0.06 0.06 0.06 0.05 0.05 0.05 0.06 0.06 0.05 0.06 0.07 0.07 0.08 0.08 0.09 0.09 0.10 0.10 0.10 0.09 0.08 0.08 0.08 0.08 0.07 0.05 0.04 0.03 0.03 0.03 0.03 0.03 0.03 0.02 0.02
0.07 0.06 0.06 0.06 0.06 0.06 0.06 0.06 0.06 0.05 0.05 0.05 0.05 0.06 0.07 0.08 0.09 0.09 0.09 0.10 0.10 0.10 0.09 0.09 0.08 0.08 0.08 0.07 0.05 0.04 0.03 0.03 0.03 0.03 0.03 0.03 0.02 0.02
0.06 0.06 0.06 0.06 0.06 0.06 0.06 0.06 0.05 0.05 0.05 0.05 0.05 0.06 0.06 0.07 0.07 0.07 0.08 0.09 0.09 0.09 0.08 0.08 0.07 0.07 0.07 0.05 0.04 0.03 0.03 0.03 0.03 0.03 0.03 0.03 0.02 0.02
0.09 0.08 0.07 0.06 0.05 0.06 0.07 0.07 0.06 0.05 0.05 0.05 0.05 0.06 0.06 0.06 0.06 0.06 0.07 0.08 0.08 0.08 0.07 0.07 0.06 0.05 0.05 0.05 0.04 0.04 0.04 0.04 0.03 0.03 0.03 0.02 0.02 0.02
0.11 0.09 0.08 0.06 0.05 0.05 0.05 0.05 0.05 0.04 0.04 0.04 0.05 0.05 0.05 0.05 0.05 0.05 0.06 0.08 0.08 0.07 0.06 0.05 0.05 0.05 0.06 0.06 0.05 0.04 0.03 0.03 0.03 0.02 0.02 0.02 0.02 0.02
0.13 0.11 0.08 0.07 0.06 0.05 0.04 0.04 0.04 0.03 0.04 0.04 0.04 0.04 0.04 0.05 0.05 0.05 0.06 0.06 0.06 0.06 0.06 0.06 0.07 0.07 0.06 0.05 0.04 0.03 0.03 0.03 0.02 0.02 0.02 0.03 0.03 0.04
0.13 0.13 0.10 0.08 0.06 0.05 0.05 0.04 0.04 0.03 0.03 0.03 0.04 0.05 0.05 0.06 0.06 0.07 0.07 0.06 0.06 0.06 0.06 0.06 0.07 0.06 0.06 0.06 0.05 0.04 0.04 0.03 0.03 0.03 0.03 0.04 0.04 0.04
MSLP
1009.05 1009.33 1009.60 1009.86 1010.06 1010.19 1010.24 1010.21 1010.12 1009.99 1009.84 1009.68 1009.55 1009.45 1009.40 1009.40 1009.46 1009.56 1009.73 1009.94 1010.20 1010.51 1010.87 1011.27 1011.71 1012.17 1012.66 1013.15 1013.63 1014.08 1014.48 1014.81 1015.07 1015.23 1015.30 1015.27 1015.15 1014.96
1007.61 1007.84 1008.09 1008.34 1008.57 1008.74 1008.86 1008.91 1008.89 1008.84 1008.75 1008.66 1008.58 1008.54 1008.53 1008.58 1008.69 1008.85 1009.06 1009.32 1009.63 1009.98 1010.38 1010.81 1011.26 1011.75 1012.24 1012.75 1013.25 1013.73 1014.17 1014.55 1014.85 1015.07 1015.19 1015.19 1015.11 1014.93
1006.19 1006.35 1006.56 1006.80 1007.03 1007.24 1007.42 1007.54 1007.61 1007.65 1007.65 1007.64 1007.64 1007.67 1007.73 1007.84 1008.01 1008.22 1008.49 1008.80 1009.15 1009.54 1009.96 1010.40 1010.86 1011.34 1011.83 1012.33 1012.83 1013.31 1013.76 1014.17 1014.51 1014.76 1014.93 1014.99 1014.94 1014.80
1004.86 1004.95 1005.10 1005.30 1005.53 1005.76 1005.97 1006.16 1006.31 1006.42 1006.52 1006.60 1006.68 1006.78 1006.92 1007.10 1007.33 1007.61 1007.94 1008.31 1008.71 1009.14 1009.59 1010.04 1010.51 1010.98 1011.46 1011.93 1012.41 1012.87 1013.31 1013.72 1014.08 1014.37 1014.57 1014.68 1014.68 1014.59
1003.71 1003.71 1003.79 1003.94 1004.13 1004.35 1004.57 1004.78 1004.98 1005.15 1005.31 1005.46 1005.62 1005.80 1006.01 1006.26 1006.57 1006.92 1007.32 1007.77 1008.24 1008.73 1009.23 1009.72 1010.21 1010.68 1011.15 1011.60 1012.04 1012.48 1012.89 1013.28 1013.63 1013.93 1014.16 1014.30 1014.36 1014.33
1002.77 1002.68 1002.68 1002.74 1002.87 1003.03 1003.22 1003.42 1003.61 1003.81 1003.99 1004.18 1004.39 1004.63 1004.90 1005.23 1005.62 1006.06 1006.55 1007.10 1007.67 1008.25 1008.83 1009.40 1009.94 1010.45 1010.92 1011.36 1011.78 1012.17 1012.55 1012.90 1013.22 1013.51 1013.75 1013.92 1014.02 1014.04
1002.05 1001.87 1001.77 1001.74 1001.76 1001.83 1001.94 1002.07 1002.21 1002.37 1002.54 1002.74 1002.96 1003.23 1003.56 1003.96 1004.43 1004.97 1005.58 1006.24 1006.94 1007.66 1008.36 1009.04 1009.66 1010.24 1010.75 1011.20 1011.61 1011.97 1012.30 1012.61 1012.89 1013.15 1013.38 1013.56 1013.68 1013.74
1001.53 1001.26 1001.05 1000.90 1000.80 1000.74 1000.73 1000.74 1000.79 1000.87 1000.98 1001.14 1001.36 1001.64 1002.01 1002.47 1003.02 1003.67 1004.40 1005.20 1006.05 1006.92 1007.78 1008.59 1009.34 1010.02 1010.60 1011.09 1011.50 1011.85 1012.15 1012.41 1012.65 1012.87 1013.07 1013.24 1013.37 1013.47
1001.16 1000.81 1000.49 1000.21 999.96 999.76 999.59 999.47 999.38 999.35 999.38 999.48 999.67 999.95 1000.34 1000.85 1001.47 1002.22 1003.07 1004.02 1005.02 1006.05 1007.07 1008.04 1008.93 1009.73 1010.40 1010.96 1011.41 1011.76 1012.04 1012.27 1012.47 1012.65 1012.82 1012.97 1013.11 1013.21
1000.88 1000.45 1000.04 999.63 999.25 998.90 998.58 998.30 998.08 997.93 997.86 997.90 998.04 998.30 998.71 999.25 999.94 1000.77 1001.72 1002.78 1003.92 1005.09 1006.26 1007.37 1008.41 1009.32 1010.11 1010.75 1011.25 1011.63 1011.92 1012.14 1012.32 1012.47 1012.61 1012.75 1012.88 1012.99
1000.63 1000.15 999.66 999.16 998.66 998.18 997.72 997.32 996.98 996.72 996.57 996.53 996.63 996.88 997.29 997.85 998.58 999.46 1000.48 1001.62 1002.84 1004.12 1005.39 1006.62 1007.77 1008.79 1009.68 1010.40 1010.97 1011.41 1011.73 1011.97 1012.15 1012.30 1012.43 1012.57 1012.69 1012.80
1000.37 999.87 999.34 998.78 998.20 997.63 997.08 996.57 996.14 995.81 995.60 995.52 995.59 995.82 996.22 996.80 997.53 998.43 999.47 1000.64 1001.90 1003.22 1004.54 1005.84 1007.05 1008.16 1009.12 1009.92 1010.57 1011.07 1011.45 1011.73 1011.95 1012.12 1012.27 1012.41 1012.54 1012.66
1000.10 999.61 999.07 998.49 997.88 997.25 996.65 996.10 995.62 995.25 995.01 994.91 994.97 995.20 995.60 996.16 996.89 997.77 998.79 999.94 1001.18 1002.47 1003.79 1005.09 1006.32 1007.46 1008.47 1009.34 1010.06 1010.64 1011.09 1011.44 1011.71 1011.93 1012.12 1012.29 1012.43 1012.56
999.82 999.36 998.85 998.29 997.68 997.06 996.45 995.89 995.40 995.03 994.79 994.70 994.76 995.00 995.39 995.95 996.65 997.49 998.46 999.54 1000.71 1001.94 1003.19 1004.44 1005.65 1006.78 1007.81 1008.72 1009.49 1010.14 1010.67 1011.10 1011.45 1011.73 1011.98 1012.18 1012.36 1012.51
999.53 999.14 998.68 998.15 997.58 996.99 996.41 995.87 995.41 995.06 994.85 994.78 994.87 995.12 995.52 996.06 996.73 997.53 998.43 999.42 1000.49 1001.62 1002.78 1003.95 1005.09 1006.18 1007.20 1008.13 1008.94 1009.65 1010.25 1010.76 1011.18 1011.54 1011.84 1012.09 1012.30 1012.46
999.24 998.92 998.52 998.06 997.54 996.99 996.45 995.95 995.53 995.22 995.04 995.01 995.14 995.41 995.82 996.36 997.01 997.76 998.60 999.51 1000.48 1001.50 1002.56 1003.63 1004.69 1005.72 1006.71 1007.63 1008.46 1009.21 1009.86 1010.43 1010.92 1011.34 1011.69 1011.98 1012.22 1012.40
998.95 998.69 998.36 997.95 997.48 996.98 996.48 996.01 995.63 995.36 995.22 995.23 995.39 995.70 996.13 996.68 997.33 998.05 998.84 999.69 1000.59 1001.52 1002.48 1003.46 1004.45 1005.42 1006.36 1007.25 1008.09 1008.85 1009.54 1010.15 1010.68 1011.13 1011.52 1011.84 1012.09 1012.28
998.64 998.43 998.14 997.77 997.34 996.87 996.40 995.97 995.61 995.36 995.25 995.29 995.49 995.82 996.29 996.86 997.52 998.25 999.03 999.86 1000.71 1001.59 1002.50 1003.41 1004.34 1005.25 1006.15 1007.01 1007.83 1008.59 1009.28 1009.90 1010.45 1010.91 1011.31 1011.63 1011.88 1012.07
998.28 998.10 997.84 997.50 997.09 996.63 996.17 995.75 995.40 995.16 995.07 995.13 995.35 995.71 996.21 996.82 997.52 998.27 999.08 999.91 1000.77 1001.64 1002.52 1003.41 1004.30 1005.18 1006.04 1006.88 1007.67 1008.41 1009.08 1009.69 1010.22 1010.68 1011.06 1011.37 1011.60 1011.78
997.87 997.71 997.46 997.12 996.71 996.25 995.79 995.36 995.00 994.76 994.67 994.73 994.97 995.36 995.89 996.53 997.27 998.07 998.92 999.80 1000.69 1001.58 1002.48 1003.38 1004.26 1005.14 1005.98 1006.80 1007.57 1008.28 1008.93 1009.51 1010.02 1010.45 1010.80 1011.07 1011.28 1011.43
997.40 997.23 996.98 996.63 996.22 995.75 995.27 994.83 994.46 994.21 994.11 994.17 994.41 994.81 995.36 996.04 996.82 997.67 998.57 999.51 1000.45 1001.40 1002.35 1003.28 1004.19 1005.08 1005.93 1006.75 1007.50 1008.20 1008.83 1009.38 1009.86 1010.25 1010.56 1010.81 1010.98 1011.11
996.88 996.70 996.42 996.07 995.64 995.16 994.68 994.23 993.85 993.59 993.47 993.53 993.76 994.16 994.72 995.42 996.23 997.12 998.08 999.07 1000.08 1001.09 1002.10 1003.09 1004.05 1004.98 1005.86 1006.69 1007.46 1008.16 1008.78 1009.32 1009.77 1010.14 1010.43 1010.64 1010.79 1010.89
996.31 996.10 995.81 995.45 995.01 994.54 994.06 993.61 993.23 992.97 992.85 992.89 993.11 993.51 994.06 994.76 995.59 996.51 997.50 998.54 999.61 1000.69 1001.76 1002.81 1003.84 1004.83 1005.76 1006.64 1007.44 1008.16 1008.80 1009.34 1009.79 1010.16 1010.43 1010.63 1010.77 1010.86
Thickness
5608 5607 5607 5608 5607 5607 5606 5604 5600 5597 5599 5598 5595 5596 5594 5592 5590 5586 5583 5580 5575 5571 5566 5561 5556 5550 5544 5538 5532 5526 5520 5514 5508 5502 5497 5492 5487 5481
5603 5601 5602 5602 5602 5601 5600 5600 5598 5596 5595 5595 5591 5590 5588 5587 5584 5581 5578 5574 5570 5565 5561 5555 5550 5545 5539 5532 5526 5520 5514 5508 5502 5496 5491 5485 5480 5474
5599 5597 5598 5598 5597 5596 5595 5594 5592 5591 5589 5588 5585 5583 5581 5580 5577 5575 5571 5568 5564 5560 5555 5550 5545 5539 5533 5527 5520 5514 5508 5502 5496 5490 5484 5479 5473 5468
5595 5594 5594 5593 5592 5592 5590 5589 5588 5586 5583 5581 5579 5576 5575 5573 5571 5568 5565 5562 5558 5554 5549 5545 5539 5534 5528 5521 5515 5509 5502 5496 5490 5484 5478 5473 5467 5461
5591 5591 5591 5589 5589 5588 5587 5585 5583 5581 5578 5576 5573 5570 5568 5565 5562 5560 5558 5554 5551 5547 5543 5539 5533 5528 5522 5516 5509 5503 5496 5490 5484 5479 5472 5467 5460 5454
5586 5587 5587 5587 5587 5585 5583 5582 5579 5575 5572 5570 5566 5563 5561 5558 5555 5552 5549 5547 5544 5540 5537 5533 5528 5522 5516 5510 5504 5497 5491 5484 5478 5473 5466 5460 5454 5447
5579 5580 5581 5583 5583 5581 5579 5577 5574 5571 5567 5564 5561 5558 5555 5551 5551 5548 5544 5540 5536 5533 5529 5525 5520 5515 5509 5503 5497 5491 5485 5479 5473 5467 5460 5454 5447 5441
5573 5574 5574 5575 5575 5575 5575 5574 5572 5569 5566 5563 5559 5557 5555 5551 5548 5543 5537 5532 5530 5527 5522 5518 5513 5508 5503 5497 5491 5485 5479 5473 5466 5460 5454 5447 5441 5434
5567 5567 5568 5569 5568 5568 5567 5566 5566 5566 5566 5564 5559 5558 5554 5550 5544 5538 5534 5531 5528 5522 5515 5511 5505 5501 5497 5491 5485 5479 5473 5467 5460 5454 5447 5441 5434 5428
5560 5562 5563 5563 5563 5562 5560 5559 5560 5560 5560 5559 5558 5556 5552 5547 5543 5538 5532 5524 5518 5513 5509 5503 5498 5494 5490 5485 5479 5473 5467 5460 5454 5447 5441 5434 5428 5421
5554 5555 5556 5558 5558 5556 5554 5554 5553 5553 5552 5551 5550 5548 5545 5542 5537 5529 5522 5517 5512 5506 5501 5497 5490 5484 5480 5476 5472 5467 5460 5454 5447 5440 5434 5427 5420 5414
5547 5549 5550 5552 5552 5550 5550 5549 5548 5547 5545 5543 5541 5539 5537 5534 5530 5527 5522 5515 5507 5501 5496 5490 5483 5476 5471 5467 5463 5458 5453 5446 5439 5432 5426 5420 5413 5405
5541 5543 5546 5546 5546 5545 5545 5545 5545 5542 5538 5536 5533 5531 5528 5525 5523 5520 5517 5513 5506 5499 5493 5485 5477 5470 5464 5458 5453 5449 5444 5438 5431 5424 5417 5411 5405 5398
5536 5538 5540 5539 5539 5539 5538 5538 5536 5533 5530 5528 5526 5523 5520 5518 5515 5512 5508 5505 5502 5497 5489 5482 5473 5466 5458 5450 5445 5440 5435 5429 5423 5416 5409 5404 5398 5391
5528 5531 5532 5531 5530 5530 5530 5529 5526 5524 5523 5521 5520 5518 5515 5511 5506 5501 5497 5493 5489 5485 5480 5475 5469 5461 5453 5446 5438 5431 5425 5420 5414 5407 5401 5396 5391 5385
5517 5520 5521 5521 5521 5522 5521 5520 5518 5518 5517 5515 5513 5509 5504 5500 5496 5493 5488 5483 5477 5472 5468 5465 5460 5454 5445 5438 5432 5424 5418 5412 5406 5399 5394 5389 5384 5379
5509 5510 5510 5510 5511 5512 5512 5512 5511 5509 5507 5505 5502 5499 5495 5491 5487 5483 5479 5475 5470 5464 5457 5452 5448 5443 5437 5431 5423 5418 5411 5404 5398 5392 5387 5382 5378 5374
5501 5503 5504 5506 5507 5507 5505 5504 5503 5503 5501 5498 5495 5492 5489 5485 5480 5475 5471 5467 5463 5457 5451 5444 5438 5432 5426 5419 5416 5410 5404 5397 5391 5386 5381 5376 5372 5368
5494 5498 5500 5501 5501 5500 5499 5498 5497 5496 5494 5492 5489 5485 5482 5478 5473 5469 5464 5459 5454 5449 5443 5437 5432 5427 5421 5414 5406 5403 5397 5391 5385 5380 5375 5369 5365 5361
5487 5490 5493 5494 5495 5494 5493 5492 5491 5488 5487 5485 5482 5478 5475 5471 5467 5462 5458 5453 5448 5441 5435 5429 5425 5421 5417 5411 5400 5394 5391 5385 5380 5374 5369 5363 5358 5355
5479 5482 5485 5487 5488 5488 5487 5486 5485 5483 5481 5479 5476 5472 5469 5465 5461 5457 5452 5447 5441 5435 5430 5423 5418 5413 5406 5400 5392 5386 5382 5379 5375 5369 5362 5356 5351 5347
5470 5474 5477 5479 5481 5481 5481 5480 5479 5477 5474 5472 5470 5467 5463 5460 5456 5450 5446 5440 5435 5429 5422 5414 5408 5403 5397 5393 5386 5379 5374 5371 5367 5363 5358 5352 5345 5340
5461 5466 5469 5471 5473 5475 5474 5474 5473 5471 5469 5467 5464 5461 5457 5453 5449 5444 5438 5433 5427 5420 5413 5405 5399 5394 5388 5383 5377 5371 5366 5362 5358 5353 5349 5346 5342 5337